Time,TemperatureF,DewpointF,PressureIn,WindDirection,WindDirectionDegrees,WindSpeedMPH,WindSpeedGustMPH,Humidity,HourlyPrecipIn,Conditions,Clouds,dailyrainin,SolarRadiationWatts/m^2,SoftwareType,DateUTC
2013-03-04 00:01:00,36.0,21.0,-100.00,SSE,158,0.0,2.0,55,0.00,,,0.00,0.000000,,2013-03-04 06:01:00,
2013-03-04 00:32:00,35.0,23.0,-100.00,SE,127,2.0,3.0,60,0.00,,,0.00,0.000000,,2013-03-04 06:32:00,
2013-03-04 00:42:00,35.0,23.0,-100.00,SE,127,2.0,3.0,60,0.00,,,0.00,0.000000,,2013-03-04 06:42:00,
2013-03-04 00:52:00,35.0,23.0,-100.00,SE,127,2.0,3.0,60,0.00,,,0.00,0.000000,,2013-03-04 06:52:00,
2013-03-04 01:01:00,35.0,23.0,-100.00,SE,127,2.0,3.0,60,0.00,,,0.00,0.000000,,2013-03-04 07:01:00,
2013-03-04 01:32:00,35.0,21.0,-100.00,SE,126,2.0,4.0,57,0.00,,,0.00,0.000000,,2013-03-04 07:32:00,
2013-03-04 01:42:00,35.0,21.0,-100.00,SE,126,2.0,4.0,57,0.00,,,0.00,0.000000,,2013-03-04 07:42:00,
2013-03-04 01:52:00,35.0,21.0,-100.00,SE,126,2.0,4.0,57,0.00,,,0.00,0.000000,,2013-03-04 07:52:00,
2013-03-04 02:02:00,35.0,21.0,-100.00,SE,126,2.0,4.0,57,0.00,,,0.00,0.000000,,2013-03-04 08:02:00,
2013-03-04 02:32:00,35.0,22.0,-100.00,ESE,109,3.0,5.0,59,0.00,,,0.00,0.000000,,2013-03-04 08:32:00,
2013-03-04 02:42:00,35.0,22.0,-100.00,ESE,109,3.0,5.0,59,0.00,,,0.00,0.000000,,2013-03-04 08:42:00,
2013-03-04 02:52:00,35.0,22.0,-100.00,ESE,109,3.0,5.0,59,0.00,,,0.00,0.000000,,2013-03-04 08:52:00,
2013-03-04 03:01:00,35.0,22.0,-100.00,ESE,109,3.0,5.0,59,0.00,,,0.00,0.000000,,2013-03-04 09:01:00,
2013-03-04 03:32:00,36.0,21.0,-100.00,SE,139,4.0,7.0,55,0.00,,,0.00,0.000000,,2013-03-04 09:32:00,
2013-03-04 03:42:00,36.0,21.0,-100.00,SE,139,4.0,7.0,55,0.00,,,0.00,0.000000,,2013-03-04 09:42:00,
2013-03-04 03:52:00,36.0,21.0,-100.00,SE,139,4.0,7.0,55,0.00,,,0.00,0.000000,,2013-03-04 09:52:00,
2013-03-04 04:01:00,36.0,21.0,-100.00,SE,139,4.0,7.0,55,0.00,,,0.00,0.000000,,2013-03-04 10:01:00,
2013-03-04 04:32:00,35.0,21.0,-100.00,ESE,115,4.0,7.0,56,0.00,,,0.00,0.000000,,2013-03-04 10:32:00,
2013-03-04 04:42:00,35.0,21.0,-100.00,ESE,115,4.0,7.0,56,0.00,,,0.00,0.000000,,2013-03-04 10:42:00,
2013-03-04 04:52:00,35.0,21.0,-100.00,ESE,115,4.0,7.0,56,0.00,,,0.00,0.000000,,2013-03-04 10:52:00,
2013-03-04 05:02:00,35.0,21.0,-100.00,ESE,115,4.0,7.0,56,0.00,,,0.00,0.000000,,2013-03-04 11:02:00,
2013-03-04 05:32:00,35.0,21.0,-100.00,ESE,122,4.0,10.0,56,0.00,,,0.00,0.000000,,2013-03-04 11:32:00,
2013-03-04 05:42:00,35.0,21.0,-100.00,ESE,122,4.0,10.0,56,0.00,,,0.00,0.000000,,2013-03-04 11:42:00,
2013-03-04 05:52:00,35.0,21.0,-100.00,ESE,122,4.0,10.0,56,0.00,,,0.00,0.000000,,2013-03-04 11:52:00,
2013-03-04 06:01:00,35.0,21.0,-100.00,ESE,122,4.0,10.0,56,0.00,,,0.00,0.000000,,2013-03-04 12:01:00,
2013-03-04 06:32:00,35.0,20.0,-100.00,SE,128,5.0,8.0,54,0.00,,,0.00,0.000000,,2013-03-04 12:32:00,
2013-03-04 06:42:00,35.0,20.0,-100.00,SE,128,5.0,8.0,54,0.00,,,0.00,0.000000,,2013-03-04 12:42:00,
2013-03-04 06:53:00,35.0,20.0,-100.00,SE,128,5.0,8.0,54,0.00,,,0.00,0.000000,,2013-03-04 12:53:00,
2013-03-04 07:02:00,35.0,20.0,-100.00,SE,128,5.0,8.0,54,0.00,,,0.00,0.000000,,2013-03-04 13:02:00,
2013-03-04 07:32:00,36.0,20.0,-100.00,SE,127,6.0,11.0,52,0.00,,,0.00,10.000000,,2013-03-04 13:32:00,
2013-03-04 07:42:00,36.0,20.0,-100.00,SE,127,6.0,11.0,52,0.00,,,0.00,10.000000,,2013-03-04 13:42:00,
2013-03-04 07:52:00,36.0,20.0,-100.00,SE,127,6.0,11.0,52,0.00,,,0.00,10.000000,,2013-03-04 13:52:00,
2013-03-04 08:01:00,36.0,20.0,-100.00,SE,127,6.0,11.0,52,0.00,,,0.00,10.000000,,2013-03-04 14:01:00,
2013-03-04 08:32:00,37.0,20.0,-100.00,SE,135,5.0,12.0,49,0.00,,,0.00,72.000000,,2013-03-04 14:32:00,
2013-03-04 08:42:00,37.0,20.0,-100.00,SE,135,5.0,12.0,49,0.00,,,0.00,72.000000,,2013-03-04 14:42:00,
2013-03-04 08:52:00,37.0,20.0,-100.00,SE,135,5.0,12.0,49,0.00,,,0.00,72.000000,,2013-03-04 14:52:00,
2013-03-04 09:01:00,37.0,20.0,-100.00,SE,135,5.0,12.0,49,0.00,,,0.00,72.000000,,2013-03-04 15:01:00,
2013-03-04 09:32:00,40.0,20.0,-100.00,SE,146,7.0,17.0,44,0.00,,,0.00,193.000000,,2013-03-04 15:32:00,
2013-03-04 09:42:00,40.0,20.0,-100.00,SE,146,7.0,17.0,44,0.00,,,0.00,193.000000,,2013-03-04 15:42:00,
2013-03-04 09:52:00,40.0,20.0,-100.00,SE,146,7.0,17.0,44,0.00,,,0.00,193.000000,,2013-03-04 15:52:00,
2013-03-04 10:02:00,40.0,20.0,-100.00,SE,146,7.0,17.0,44,0.00,,,0.00,193.000000,,2013-03-04 16:02:00,
2013-03-04 10:32:00,44.0,22.0,-100.00,SE,142,7.0,19.0,41,0.00,,,0.00,368.000000,,2013-03-04 16:32:00,
2013-03-04 10:42:00,44.0,22.0,-100.00,SE,142,7.0,19.0,41,0.00,,,0.00,368.000000,,2013-03-04 16:42:00,
2013-03-04 10:52:00,44.0,22.0,-100.00,SE,142,7.0,19.0,41,0.00,,,0.00,368.000000,,2013-03-04 16:52:00,
2013-03-04 11:02:00,44.0,22.0,-100.00,SE,142,7.0,19.0,41,0.00,,,0.00,368.000000,,2013-03-04 17:02:00,
2013-03-04 11:32:00,47.0,23.0,-100.00,SE,145,8.0,18.0,38,0.00,,,0.00,482.000000,,2013-03-04 17:32:00,
2013-03-04 11:42:00,47.0,23.0,-100.00,SE,145,8.0,18.0,38,0.00,,,0.00,482.000000,,2013-03-04 17:42:00,
2013-03-04 11:52:00,47.0,23.0,-100.00,SE,145,8.0,18.0,38,0.00,,,0.00,482.000000,,2013-03-04 17:52:00,
2013-03-04 12:01:00,47.0,23.0,-100.00,SE,145,8.0,18.0,38,0.00,,,0.00,482.000000,,2013-03-04 18:01:00,
2013-03-04 12:32:00,50.0,24.0,-100.00,SE,143,7.0,18.0,36,0.00,,,0.00,598.000000,,2013-03-04 18:32:00,
2013-03-04 12:42:00,50.0,24.0,-100.00,SE,143,7.0,18.0,36,0.00,,,0.00,598.000000,,2013-03-04 18:42:00,
2013-03-04 12:52:00,50.0,24.0,-100.00,SE,143,7.0,18.0,36,0.00,,,0.00,598.000000,,2013-03-04 18:52:00,
2013-03-04 13:02:00,50.0,24.0,-100.00,SE,143,7.0,18.0,36,0.00,,,0.00,598.000000,,2013-03-04 19:02:00,
2013-03-04 13:32:00,55.0,27.0,-100.00,SSE,150,6.0,18.0,34,0.00,,,0.00,719.000000,,2013-03-04 19:32:00,
2013-03-04 13:42:00,55.0,27.0,-100.00,SSE,150,6.0,18.0,34,0.00,,,0.00,719.000000,,2013-03-04 19:42:00,
2013-03-04 13:52:00,55.0,27.0,-100.00,SSE,150,6.0,18.0,34,0.00,,,0.00,719.000000,,2013-03-04 19:52:00,
2013-03-04 14:02:00,55.0,27.0,-100.00,SSE,150,6.0,18.0,34,0.00,,,0.00,719.000000,,2013-03-04 20:02:00,
2013-03-04 14:32:00,55.0,26.0,-100.00,SE,136,6.0,15.0,33,0.00,,,0.00,488.000000,,2013-03-04 20:32:00,
2013-03-04 14:42:00,55.0,26.0,-100.00,SE,136,6.0,15.0,33,0.00,,,0.00,488.000000,,2013-03-04 20:42:00,
2013-03-04 14:52:00,55.0,26.0,-100.00,SE,136,6.0,15.0,33,0.00,,,0.00,488.000000,,2013-03-04 20:52:00,
2013-03-04 15:02:00,55.0,26.0,-100.00,SE,136,6.0,15.0,33,0.00,,,0.00,488.000000,,2013-03-04 21:02:00,
2013-03-04 15:32:00,55.0,29.0,-100.00,SSE,154,4.0,12.0,36,0.00,,,0.00,91.000000,,2013-03-04 21:32:00,
2013-03-04 15:43:00,55.0,29.0,-100.00,SSE,154,4.0,12.0,36,0.00,,,0.00,91.000000,,2013-03-04 21:43:00,
2013-03-04 15:53:00,55.0,29.0,-100.00,SSE,154,4.0,12.0,36,0.00,,,0.00,91.000000,,2013-03-04 21:53:00,
2013-03-04 16:02:00,55.0,29.0,-100.00,SSE,154,4.0,12.0,36,0.00,,,0.00,91.000000,,2013-03-04 22:02:00,
2013-03-04 16:32:00,55.0,29.0,-100.00,SE,134,3.0,10.0,37,0.00,,,0.00,82.000000,,2013-03-04 22:32:00,
2013-03-04 16:43:00,55.0,29.0,-100.00,SE,134,3.0,10.0,37,0.00,,,0.00,82.000000,,2013-03-04 22:43:00,
2013-03-04 16:52:00,55.0,29.0,-100.00,SE,134,3.0,10.0,37,0.00,,,0.00,82.000000,,2013-03-04 22:52:00,
2013-03-04 17:02:00,55.0,29.0,-100.00,SE,134,3.0,10.0,37,0.00,,,0.00,82.000000,,2013-03-04 23:02:00,
2013-03-04 17:32:00,54.0,28.0,-100.00,SE,129,3.0,10.0,37,0.00,,,0.00,28.000000,,2013-03-04 23:32:00,
2013-03-04 17:42:00,54.0,28.0,-100.00,SE,129,3.0,10.0,37,0.00,,,0.00,28.000000,,2013-03-04 23:42:00,
2013-03-04 17:52:00,54.0,28.0,-100.00,SE,129,3.0,10.0,37,0.00,,,0.00,28.000000,,2013-03-04 23:52:00,
2013-03-04 18:02:00,54.0,28.0,-100.00,SE,129,3.0,10.0,37,0.00,,,0.00,28.000000,,2013-03-05 00:02:00,
2013-03-04 18:33:00,53.0,29.0,-100.00,ESE,104,3.0,8.0,40,0.00,,,0.00,3.000000,,2013-03-05 00:33:00,
2013-03-04 18:42:00,53.0,29.0,-100.00,ESE,104,3.0,8.0,40,0.00,,,0.00,3.000000,,2013-03-05 00:42:00,
2013-03-04 18:52:00,53.0,29.0,-100.00,ESE,104,3.0,8.0,40,0.00,,,0.00,3.000000,,2013-03-05 00:52:00,
2013-03-04 19:01:00,53.0,29.0,-100.00,ESE,104,3.0,8.0,40,0.00,,,0.00,3.000000,,2013-03-05 01:01:00,
2013-03-04 20:32:00,52.0,30.0,-100.00,East,86,2.0,7.0,42,-99.99,,,0.00,0.000000,,2013-03-05 02:32:00,
2013-03-04 20:42:00,52.0,30.0,-100.00,East,86,2.0,7.0,42,-99.99,,,0.00,0.000000,,2013-03-05 02:42:00,
2013-03-04 20:52:00,52.0,30.0,-100.00,East,86,2.0,7.0,42,-99.99,,,0.00,0.000000,,2013-03-05 02:52:00,
2013-03-04 21:02:00,52.0,30.0,-100.00,East,86,2.0,7.0,42,-99.99,,,0.00,0.000000,,2013-03-05 03:02:00,
2013-03-04 21:32:00,51.0,31.0,-100.00,ESE,116,3.0,6.0,46,0.00,,,0.00,0.000000,,2013-03-05 03:32:00,
2013-03-04 21:42:00,51.0,31.0,-100.00,ESE,116,3.0,6.0,46,0.00,,,0.00,0.000000,,2013-03-05 03:42:00,
2013-03-04 21:52:00,51.0,31.0,-100.00,ESE,116,3.0,6.0,46,0.00,,,0.00,0.000000,,2013-03-05 03:52:00,
2013-03-04 22:01:00,51.0,31.0,-100.00,ESE,116,3.0,6.0,46,0.00,,,0.00,0.000000,,2013-03-05 04:01:00,
2013-03-04 22:32:00,51.0,31.0,-100.00,ESE,115,2.0,7.0,46,0.00,,,0.00,0.000000,,2013-03-05 04:32:00,
2013-03-04 22:42:00,51.0,31.0,-100.00,ESE,115,2.0,7.0,46,0.00,,,0.00,0.000000,,2013-03-05 04:42:00,
2013-03-04 22:52:00,51.0,31.0,-100.00,ESE,115,2.0,7.0,46,0.00,,,0.00,0.000000,,2013-03-05 04:52:00,
2013-03-04 23:02:00,51.0,31.0,-100.00,ESE,115,2.0,7.0,46,0.00,,,0.00,0.000000,,2013-03-05 05:02:00,
2013-03-04 23:32:00,48.0,36.0,-100.00,East,83,2.0,5.0,64,0.01,,,0.01,0.000000,,2013-03-05 05:32:00,
2013-03-04 23:42:00,48.0,36.0,-100.00,East,83,2.0,5.0,64,0.01,,,0.01,0.000000,,2013-03-05 05:42:00,
2013-03-04 23:52:00,48.0,36.0,-100.00,East,83,2.0,5.0,64,0.01,,,0.01,0.000000,,2013-03-05 05:52:00,